Location: Detroit
(42.3310°N, 83.0460°W)
Time: 10:41:31
(UTC-05:00)

Transit 2A Rocket - Visible Passes

Search period start: 29 January 2023 00:00
Search period end: 08 February 2023 00:00
Orbit: 585 x 915 km, 66.7° (Epoch: 29 January)

Date Brightness Start Highest point End Pass type
(mag) Time Alt. Az. Time Alt. Az. Time Alt. Az.
01 Feb 7.6 07:08:03 10° N 07:10:43 13° NNE 07:13:25 10° ENE visible
04 Feb 7.6 06:40:53 10° N 06:44:27 16° NE 06:48:05 10° ENE visible
05 Feb 7.8 05:58:54 10° NNE 06:00:45 11° NNE 06:02:36 10° NE visible
06 Feb 7.1 06:56:29 10° NNW 07:01:37 28° NE 07:06:49 10° ESE visible
07 Feb 7.5 06:13:51 10° N 06:18:08 20° NE 06:22:27 10° E visible
